Weather History for Wrangell, AK

Change the Weather History Date:

Thursday, March 7, 2013

  Actual Average Record
Temperature  
Mean Temperature 32 °F -  
Max Temperature 39 °F 40 °F 48 °F (1979)
Min Temperature 26 °F 29 °F 9 °F (1974)
Degree Days  
Heating Degree Days 32    
Moisture  
Dew Point 21 °F    
Average Humidity 64    
Maximum Humidity 75    
Minimum Humidity 45    
Precipitation  
Precipitation 0.00 in - - ()
Sea Level Pressure  
Sea Level Pressure 30.06 in    
Wind  
Wind Speed 5 mph (SSE)    
Max Wind Speed 9 mph    
Max Gust Speed -    
Visibility 10 miles    
Events      
Averages and records for this station are not official NWS values.
T = Trace of Precipitation, MM = Missing Value Source: NWS Daily Summary

Daily Weather History Graph

Daily Weather History Graph

Search for Another Location

Airport:

Trip Planner

Search our weather history database for the weather conditions in past years. The results will help you decide how hot, cold, wet, or windy it might be!

Date:

Astronomy

Mar. 07, 2013 Rise Set
Actual Time 6:24 AM AKST 5:36 PM AKST
Civil Twilight 5:47 AM AKST 6:14 PM AKST
Nautical Twilight 5:03 AM AKST 6:58 PM AKST
Astronomical Twilight 4:19 AM AKST 7:43 PM AKST
Moon 4:11 AM AKST (3/7) 12:54 PM AKST (3/7)
Length of Visible Light 12h 26m
Length of Day
11h 11m
Waning Crescent, 19% of the Moon is Illuminated
Mar 7
Waning Crescent
Mar 11
New
Mar 19
First Quarter
Mar 27
Full
Apr 2
Last Quarter

Hourly Weather History & Observations

Time (AKST) Temp. Windchill Dew Point Humidity Pressure Visibility Wind Dir Wind Speed Gust Speed Precip Events Conditions
12:16 AM 28.4 °F 23.3 °F 17.6 °F 64% 29.99 in 10.0 mi SE 4.6 mph - N/A   Clear
12:36 AM 28.4 °F 24.6 °F 17.6 °F 64% 30.00 in 10.0 mi South 3.5 mph - N/A   Clear
12:56 AM 26.6 °F - 17.6 °F 69% 30.00 in 10.0 mi Calm Calm - N/A   Clear
1:16 AM 26.6 °F 20.0 °F 17.6 °F 69% 30.00 in 10.0 mi SSE 5.8 mph - N/A   Clear
1:36 AM 26.6 °F 19.1 °F 19.4 °F 74% 30.00 in 10.0 mi SE 6.9 mph - N/A   Clear
1:56 AM 26.6 °F 18.2 °F 17.6 °F 69% 30.00 in 10.0 mi SSE 8.1 mph - N/A   Clear
2:16 AM 26.6 °F 20.0 °F 17.6 °F 69% 30.01 in 10.0 mi SE 5.8 mph - N/A   Clear
2:36 AM 28.4 °F 22.2 °F 17.6 °F 64% 30.00 in 10.0 mi SSE 5.8 mph - N/A   Clear
2:56 AM 26.6 °F 19.1 °F 19.4 °F 74% 30.00 in 10.0 mi SE 6.9 mph - N/A   Clear
3:16 AM 26.6 °F 21.2 °F 19.4 °F 74% 30.00 in 10.0 mi SE 4.6 mph - N/A   Clear
3:36 AM 26.6 °F 22.6 °F 19.4 °F 74% 30.01 in 10.0 mi SE 3.5 mph - N/A   Clear
3:56 AM 28.4 °F 24.6 °F 19.4 °F 69% 30.01 in 10.0 mi East 3.5 mph - N/A   Clear
4:16 AM 26.6 °F 20.0 °F 19.4 °F 74% 30.01 in 10.0 mi SSE 5.8 mph - N/A   Clear
4:36 AM 26.6 °F 20.0 °F 19.4 °F 74% 30.01 in 10.0 mi SE 5.8 mph - N/A   Clear
4:56 AM 26.6 °F 18.2 °F 19.4 °F 74% 30.00 in 10.0 mi SE 8.1 mph - N/A   Clear
5:16 AM 26.6 °F 19.1 °F 19.4 °F 74% 30.01 in 10.0 mi SE 6.9 mph - N/A   Clear
5:36 AM 26.6 °F 20.0 °F 19.4 °F 74% 30.01 in 10.0 mi SSE 5.8 mph - N/A   Clear
5:56 AM 26.6 °F 19.1 °F 19.4 °F 74% 30.02 in 10.0 mi SSE 6.9 mph - N/A   Clear
6:16 AM 26.6 °F 20.0 °F 17.6 °F 69% 30.02 in 10.0 mi SE 5.8 mph - N/A   Clear
6:36 AM 26.6 °F 18.2 °F 17.6 °F 69% 30.03 in 10.0 mi SSE 8.1 mph - N/A   Clear
6:56 AM 26.6 °F 20.0 °F 19.4 °F 74% 30.03 in 10.0 mi SSE 5.8 mph - N/A   Clear
7:16 AM 26.6 °F 20.0 °F 19.4 °F 74% 30.03 in 10.0 mi SE 5.8 mph - N/A   Clear
7:36 AM 28.4 °F 20.4 °F 19.4 °F 69% 30.03 in 10.0 mi SE 8.1 mph - N/A   Clear
7:56 AM 28.4 °F 21.2 °F 21.2 °F 74% 30.04 in 10.0 mi SSE 6.9 mph - N/A   Clear
8:16 AM 28.4 °F 24.6 °F 21.2 °F 74% 30.05 in 10.0 mi ESE 3.5 mph - N/A   Clear
8:36 AM 30.2 °F 24.3 °F 21.2 °F 69% 30.05 in 10.0 mi ESE 5.8 mph - N/A   Clear
8:56 AM 30.2 °F 24.3 °F 21.2 °F 69% 30.06 in 10.0 mi ESE 5.8 mph - N/A   Clear
9:16 AM 30.2 °F 24.3 °F 21.2 °F 69% 30.05 in 10.0 mi ESE 5.8 mph - N/A   Clear
9:36 AM 32.0 °F 27.5 °F 23.0 °F 69% 30.06 in 10.0 mi SE 4.6 mph - N/A   Clear
9:56 AM 32.0 °F 28.7 °F 23.0 °F 69% 30.06 in 10.0 mi East 3.5 mph - N/A   Clear
10:16 AM 32.0 °F 28.7 °F 21.2 °F 64% 30.07 in 10.0 mi NE 3.5 mph - N/A   Clear
10:36 AM 33.8 °F 30.8 °F 21.2 °F 60% 30.07 in 10.0 mi North 3.5 mph - N/A   Clear
10:56 AM 33.8 °F 30.8 °F 21.2 °F 60% 30.07 in 10.0 mi North 3.5 mph - N/A   Clear
11:16 AM 33.8 °F 30.8 °F 21.2 °F 60% 30.07 in 10.0 mi NW 3.5 mph - N/A   Clear
11:36 AM 35.6 °F 31.7 °F 19.4 °F 52% 30.07 in 10.0 mi NNW 4.6 mph - N/A   Clear
11:56 AM 35.6 °F 31.7 °F 21.2 °F 56% 30.08 in 10.0 mi NNW 4.6 mph - N/A   Clear
12:16 PM 35.6 °F 32.8 °F 21.2 °F 56% 30.07 in 10.0 mi NNW 3.5 mph - N/A   Clear
12:36 PM 35.6 °F 32.8 °F 19.4 °F 52% 30.07 in 10.0 mi NNW 3.5 mph - N/A   Clear
12:56 PM 37.4 °F 33.8 °F 19.4 °F 48% 30.07 in 10.0 mi NNW 4.6 mph - N/A   Clear
1:16 PM 37.4 °F 33.8 °F 19.4 °F 48% 30.07 in 10.0 mi NNW 4.6 mph - N/A   Clear
1:36 PM 37.4 °F 33.8 °F 19.4 °F 48% 30.07 in 10.0 mi NNW 4.6 mph - N/A   Clear
1:56 PM 37.4 °F 34.9 °F 19.4 °F 48% 30.07 in 10.0 mi NNW 3.5 mph - N/A   Clear
2:16 PM 39.2 °F 35.0 °F 19.4 °F 45% 30.07 in 10.0 mi NW 5.8 mph - N/A   Clear
2:36 PM 39.2 °F 35.0 °F 19.4 °F 45% 30.08 in 10.0 mi NW 5.8 mph - N/A   Clear
2:56 PM 39.2 °F 33.0 °F 19.4 °F 45% 30.08 in 10.0 mi NW 9.2 mph - N/A   Clear
3:16 PM 39.2 °F 34.2 °F 21.2 °F 49% 30.08 in 10.0 mi NW 6.9 mph - N/A   Clear
3:36 PM 39.2 °F 35.9 °F 24.8 °F 56% 30.07 in 10.0 mi NW 4.6 mph - N/A   Clear
3:56 PM 39.2 °F 34.2 °F 24.8 °F 56% 30.06 in 10.0 mi WNW 6.9 mph - N/A   Clear
4:16 PM 39.2 °F 35.0 °F 24.8 °F 56% 30.06 in 10.0 mi West 5.8 mph - N/A   Clear
4:36 PM 37.4 °F 32.1 °F 24.8 °F 60% 30.06 in 10.0 mi WNW 6.9 mph - N/A   Clear
4:56 PM 37.4 °F 32.8 °F 21.2 °F 52% 30.06 in 10.0 mi WSW 5.8 mph - N/A   Clear
5:16 PM 35.6 °F 28.6 °F 24.8 °F 65% 30.06 in 10.0 mi WNW 9.2 mph - N/A   Clear
5:36 PM 35.6 °F 29.9 °F 23.0 °F 60% 30.06 in 10.0 mi West 6.9 mph - N/A   Clear
5:56 PM 33.8 °F 28.6 °F 19.4 °F 56% 30.06 in 10.0 mi WSW 5.8 mph - N/A   Clear
6:16 PM 33.8 °F 28.6 °F 19.4 °F 56% 30.07 in 10.0 mi West 5.8 mph - N/A   Clear
6:36 PM 33.8 °F 27.7 °F 23.0 °F 65% 30.08 in 10.0 mi West 6.9 mph - N/A   Clear
6:56 PM 33.8 °F 29.6 °F 23.0 °F 65% 30.08 in 10.0 mi West 4.6 mph - N/A   Clear
7:16 PM 33.8 °F 30.8 °F 21.2 °F 60% 30.09 in 10.0 mi WSW 3.5 mph - N/A   Clear
7:36 PM 33.8 °F - 21.2 °F 60% 30.09 in 10.0 mi Calm Calm - N/A   Clear
7:56 PM 33.8 °F 27.7 °F 21.2 °F 60% 30.09 in 10.0 mi SE 6.9 mph - N/A   Clear
8:16 PM 33.8 °F 26.4 °F 23.0 °F 65% 30.09 in 10.0 mi SE 9.2 mph - N/A   Clear
8:36 PM 33.8 °F 27.0 °F 21.2 °F 60% 30.09 in 10.0 mi SSE 8.1 mph - N/A   Clear
8:56 PM 33.8 °F 29.6 °F 21.2 °F 60% 30.10 in 10.0 mi South 4.6 mph - N/A   Clear
9:16 PM 32.0 °F 27.5 °F 21.2 °F 64% 30.10 in 10.0 mi South 4.6 mph - N/A   Clear
9:36 PM 32.0 °F 27.5 °F 23.0 °F 69% 30.10 in 10.0 mi SSE 4.6 mph - N/A   Clear
9:56 PM 33.8 °F 28.6 °F 23.0 °F 65% 30.11 in 10.0 mi South 5.8 mph - N/A   Clear
10:16 PM 32.0 °F 26.4 °F 23.0 °F 69% 30.11 in 10.0 mi SSE 5.8 mph - N/A   Clear
10:36 PM 30.2 °F 24.3 °F 23.0 °F 75% 30.12 in 10.0 mi SSE 5.8 mph - N/A   Clear
10:56 PM 32.0 °F 27.5 °F 23.0 °F 69% 30.11 in 10.0 mi SE 4.6 mph - N/A   Clear
11:16 PM 30.2 °F 23.4 °F 21.2 °F 69% 30.11 in 10.0 mi SE 6.9 mph - N/A   Clear
11:36 PM 30.2 °F 23.4 °F 23.0 °F 75% 30.12 in 10.0 mi SE 6.9 mph - N/A   Clear
11:56 PM 30.2 °F 23.4 °F 23.0 °F 75% 30.12 in 10.0 mi SSE 6.9 mph - N/A   Clear